RESOURCESAT 2A

Satellite information

Favourite Embed

Satellite Type and Status

PAYLOADIN ORBIT

Key statistics

Satellite RESOURCESAT 2A at a glance.

Uptime

3195

Days in orbit

Revolutions

≈ 14.2

Per day

Orbit

SSO

Sun Synchronous Orbit

Inclination

98.8

Latest

Satellite identification and parameters

Extended collection of information and parameters for RESOURCESAT 2A.

Object identification

Identified? True

Debris? False

Object name: RESOURCESAT 2A

International designator: 2016-074A

Object number (NORAD): 41877

Object ID (CCSDS): 41877

Country: INDIA (IND)

Current information (Y/N): Y

RCS size: LARGE

Orbital parameters

Period: 101.298 minutes

Inclination: 98.7658 deg

SMA: 7198.281 km

Apoapsis: 821.55 km

Periapsis: 818.742 km

RAAN: 317.6346 deg

Eccentricy: 0.00019499

Argument of periapsis: 151.2301 deg

Mean anomaly: 208.8984 deg

Mean motion: 14.21541578 rev/day

Mean motion (dot): 0.00000481 rev/day2

B* drag term: 0.00024003086 1/REarth

Two-line elements (TLE)

Creation date: Sept. 4, 2025, 10:13 a.m.

Reference frame: TEME

Reference center: EARTH

Epoch: Sept. 4, 2025, 5:54 a.m. UTC

TLE line 0: 0 RESOURCESAT 2A

TLE line 1: 1 41877U 16074A 25247.24636824 .00000481 00000-0 24003-3 0 9995

TLE line 2: 2 41877 98.7658 317.6346 0001950 151.2301 208.8984 14.21541578453672

Live tracking on map

Real-time ground track for satellite RESOURCESAT 2A.

In-orbit conjunctions

There are no conjunctions computed for RESOURCESAT 2A, at the moment. Check back to stay up to date, as we update our databases every day.

Go to all conjunctions

Associated space launch

Resourcesat-2A is a remote sensing satellite, third in the program of the same name. It is intended to provide data continuity for users as a follow on mission to Resourcesat-2.

RESOURCESAT 2A was lifted into orbit during the mission ‘PSLV XL | Resourcesat-2A’, on board a PSLV-XL space rocket.

The launch took place on Dec. 7, 2016, 4:54 a.m. from Satish Dhawan Space Centre First Launch Pad.

For more information about the launch, click the button.

Launch to space PSLV XL | Resourcesat-2A
PSLV XL | Resourcesat-2A

Agency: N/A

Status: Launch Successful

Launch date: Dec. 7, 2016, 4:54 a.m. UTC

Rocket: PSLV-XL

Launch pad: Satish Dhawan Space Centre First Launch Pad

Location: Satish Dhawan Space Centre, India

...

Latest news about this satellite

There are no fresh news available about this satellite. Check back as we update our databases every day.


Newsletter sign-up

Weekly statistics, charts and insights to help you stay on top of the space industry.